Temperature
19 19 18 18 17 16 16 16 15 15 15 15 15 15 14 14 14 14 14 14 14 14 14 14 14 14 14 14 14 14 14 14 14 14 14 14 13 13 13 13 13 14 13
21 20 18 17 17 16 16 15 15 15 15 15 14 14 14 14 14 14 14 14 13 13 13 13 13 13 13 14 14 14 14 14 13 12 13 13 12 12 12 13 12 12 13
20 19 18 17 16 16 15 15 15 15 14 14 14 14 14 13 13 13 13 13 13 13 13 13 13 13 13 14 14 14 14 13 12 11 11 12 12 11 11 12 12 12 12
19 19 17 17 16 16 15 15 15 14 14 14 14 13 13 13 13 13 13 13 12 12 12 12 12 13 13 14 14 14 13 12 11 11 11 11 11 10 11 11 11 11 11
18 18 17 16 16 15 15 15 14 14 14 14 13 13 13 13 12 12 12 12 12 12 12 12 12 12 13 14 14 13 12 11 11 11 11 11 11 10 10 10 10 11 11
17 17 16 16 15 15 15 14 14 14 14 13 13 13 12 12 12 12 12 12 12 12 12 12 12 12 13 13 13 13 12 11 11 10 10 10 10 10 10 10 10 10 10
16 16 16 15 15 15 14 14 14 14 13 13 13 12 12 12 12 12 12 12 12 12 11 11 12 12 12 13 13 12 12 11 10 10 10 10 10 10 10 10 10 10 10
16 16 15 15 14 14 14 14 14 13 13 13 12 12 12 12 12 12 12 12 11 11 11 11 11 12 12 12 12 12 11 10 10 10 10 10 10 9 10 10 10 10 10
15 15 15 14 14 14 14 14 13 13 13 12 12 12 12 12 12 12 12 11 11 11 11 11 11 11 12 12 11 11 10 10 10 9 10 10 9 9 9 9 9 9 9
15 15 15 14 14 14 13 13 13 13 12 12 12 12 12 12 11 12 12 11 11 11 11 11 11 11 11 11 11 11 10 10 9 9 9 9 9 9 9 9 9 9 9
15 14 14 14 14 14 13 13 13 13 12 12 12 12 12 11 11 11 11 11 11 11 11 11 11 11 11 11 10 10 10 10 10 10 9 9 9 9 9 9 9 9 9
15 14 14 14 14 13 13 13 13 12 12 12 12 12 11 11 11 11 11 11 11 11 11 11 11 10 10 10 10 10 10 10 9 9 9 9 9 9 9 8 8 8 8
15 14 14 14 14 13 13 13 13 12 12 12 12 12 11 11 10 11 11 11 11 11 11 10 10 10 10 10 10 10 10 9 9 9 9 9 9 9 8 8 8 8 8
15 15 14 14 14 13 13 13 13 12 12 12 12 11 11 11 11 11 11 11 11 10 10 10 10 9 9 10 9 9 9 9 9 9 9 9 9 9 8 8 8 8 8
15 15 14 14 14 13 13 13 13 12 12 12 11 11 11 11 11 11 11 11 10 10 10 10 10 9 9 9 9 9 9 9 9 9 9 9 9 9 8 8 8 8 8
16 15 15 14 14 14 13 13 13 12 12 12 12 11 11 11 11 11 11 10 10 10 10 10 9 9 9 9 9 9 9 9 9 9 9 9 9 9 9 9 8 8 8
16 16 15 14 14 14 14 13 13 12 12 12 12 11 11 11 11 11 11 10 10 10 10 10 9 9 9 9 9 9 9 9 9 9 9 9 9 9 9 9 9 8 8
17 16 15 15 14 14 14 13 13 12 12 12 12 11 11 11 11 11 11 10 10 10 10 10 10 9 9 9 9 9 9 9 9 9 9 9 9 9 9 9 9 9 8
17 16 15 15 15 14 14 13 13 12 12 12 12 12 11 11 11 11 11 10 10 10 10 10 10 9 9 9 9 9 9 9 9 9 9 9 9 9 9 9 9 9 8
18 17 16 15 15 14 14 13 13 12 12 12 12 12 12 12 11 11 11 11 10 10 10 10 10 9 9 9 9 9 9 9 9 9 9 9 9 9 9 9 9 9 9
18 17 16 15 15 14 14 13 13 13 13 12 12 12 12 12 11 11 11 11 10 10 10 10 10 10 9 9 9 9 9 9 9 9 9 9 9 9 9 9 9 9 9
18 17 16 16 15 15 15 15 14 14 13 13 12 12 12 12 11 11 11 11 11 11 10 10 10 10 9 9 9 9 9 9 9 9 9 9 9 9 9 9 8 8 8
18 18 17 16 16 15 15 14 13 12 12 12 12 12 12 12 12 11 11 11 11 11 11 10 10 10 10 9 9 9 9 9 9 9 9 9 9 9 9 9 8 8 8
19 18 17 16 16 15 15 14 13 13 13 14 14 13 13 12 12 11 11 11 11 11 10 10 10 10 10 10 9 9 9 9 9 9 9 9 9 9 9 8 8 8 8
19 18 18 17 16 15 15 14 14 14 15 14 14 13 13 12 12 11 11 11 11 11 10 10 10 10 10 10 10 9 9 9 9 9 9 9 9 9 8 8 8 8 8
19 18 18 17 16 15 14 14 14 15 14 14 13 13 13 12 12 11 11 11 11 10 10 10 10 10 10 10 9 9 9 9 9 9 9 9 9 9 8 8 8 8 8
Wind_Speed
14 19 26 24 22 21 20 19 18 17 17 17 18 18 18 18 17 17 17 17 17 17 18 18 18 18 19 19 19 18 18 18 19 21 21 20 20 20 20 20 18 17 19
18 23 26 25 23 22 20 19 18 18 17 17 17 18 18 17 17 17 17 17 17 17 17 17 18 18 18 18 17 17 16 15 15 17 19 19 19 19 19 19 18 16 18
21 23 25 25 24 22 21 20 19 18 18 18 17 17 17 17 17 16 16 16 17 17 17 17 18 17 17 17 16 16 14 13 12 13 17 16 17 17 17 17 17 17 17
21 22 23 25 24 22 21 21 20 19 18 18 17 17 17 17 17 17 17 16 17 17 17 17 17 17 16 16 15 14 13 12 13 15 16 16 15 15 16 16 16 16 16
19 21 24 26 24 23 22 21 20 19 18 18 17 17 17 17 17 17 16 16 17 16 16 16 16 16 15 15 14 13 11 11 13 16 17 16 13 14 15 15 15 15 15
19 20 24 25 25 23 22 21 20 19 18 18 18 17 17 17 17 16 16 16 16 16 15 15 15 15 14 14 13 11 10 11 13 16 18 16 13 14 14 14 14 14 15
18 19 24 25 25 24 23 22 20 20 19 18 18 17 17 17 17 16 16 16 15 15 15 15 15 14 13 13 11 10 9 10 13 15 16 15 13 13 14 14 13 14 14
18 19 22 25 25 23 22 22 21 20 19 18 17 17 17 17 16 16 15 15 15 14 14 14 14 13 12 12 10 8 8 10 10 13 15 13 13 13 13 13 13 13 14
18 18 17 20 22 22 22 22 21 20 19 18 17 17 17 17 16 16 15 14 14 14 13 13 13 12 12 10 8 5 6 8 8 12 13 12 11 12 13 13 13 14 14
17 17 16 17 19 19 20 21 20 19 19 18 18 18 17 16 16 15 15 14 14 13 13 12 12 11 10 8 5 3 4 6 9 14 13 11 11 11 12 13 14 14 14
16 16 16 16 16 18 18 20 20 19 19 19 18 19 17 15 15 14 15 14 13 13 12 11 11 10 9 6 3 1 4 1 13 14 12 10 10 10 11 12 13 13 14
17 17 16 16 16 16 17 18 17 16 17 17 16 17 15 14 15 15 17 14 13 12 11 10 10 9 8 7 4 3 3 5 11 13 11 10 9 9 10 12 12 12 13
16 16 16 16 15 14 11 14 12 14 15 15 17 17 14 14 14 15 13 12 12 11 10 10 9 8 7 6 4 2 4 6 10 12 11 10 8 9 10 11 11 11 12
16 16 16 16 15 14 12 11 10 9 10 10 15 17 13 9 9 11 9 11 11 10 9 9 7 6 6 6 4 4 4 4 10 12 11 10 8 8 9 9 10 10 10
16 16 16 16 16 14 12 10 10 9 9 12 14 15 14 9 6 8 8 10 10 10 9 6 5 5 5 5 4 4 3 4 9 12 11 10 9 8 8 8 8 9 9
17 17 16 17 17 15 12 11 10 10 11 13 13 14 15 13 9 7 6 7 8 10 9 7 5 5 4 4 3 3 4 5 8 12 12 10 9 8 7 7 7 7 7
18 18 16 17 17 16 14 12 10 10 11 9 12 15 16 15 13 9 5 5 7 11 10 6 5 5 3 3 2 3 4 5 5 8 11 11 9 8 6 6 5 6 6
17 19 18 16 17 17 14 12 9 9 10 9 13 14 15 15 15 10 6 6 10 10 7 3 4 4 3 3 3 2 3 3 4 5 7 9 9 8 7 5 4 4 4
19 19 20 17 17 16 14 11 9 8 9 9 12 12 14 15 15 10 6 7 11 7 4 4 4 4 4 3 3 2 2 2 3 3 4 6 7 8 7 6 4 3 2
18 19 20 18 17 16 13 10 9 9 9 8 9 11 15 15 16 12 7 8 10 6 5 5 5 4 4 4 3 2 1 2 2 2 3 5 7 6 7 6 6 4 2
17 19 21 19 18 16 14 13 13 12 11 9 8 12 15 15 15 11 7 7 7 7 7 7 5 5 4 4 3 1 1 1 2 2 3 3 5 6 6 6 6 6 5
19 20 21 22 20 19 16 14 12 11 9 9 8 10 14 15 15 12 9 8 8 7 8 8 7 5 4 4 4 3 1 2 2 2 2 2 3 5 5 6 6 6 5
18 21 21 22 21 20 17 12 11 9 8 9 11 11 11 14 15 13 11 9 9 8 8 8 8 8 5 4 4 4 3 3 2 2 3 3 4 3 4 6 7 7 7
18 19 20 21 21 21 19 17 18 16 13 13 13 11 11 13 13 14 13 11 10 8 9 9 8 6 7 5 4 3 2 3 3 1 2 3 5 5 5 5 7 8 8
18 19 19 19 21 20 20 20 19 14 12 10 10 13 14 13 12 14 14 11 11 9 10 10 9 8 6 6 5 3 2 1 2 3 3 3 3 4 4 4 6 8 9
17 18 18 19 19 20 21 21 20 18 16 15 14 15 14 11 11 14 13 12 11 10 10 10 10 10 8 7 5 5 4 3 4 4 3 3 4 4 4 3 4 7 9
Wind_Direction
141 151 156 153 149 145 142 138 133 128 124 121 116 112 109 106 103 101 99 98 95 91 88 86 84 81 80 78 76 76 76 76 76 74 69 65 63 61 58 57 57 52 53
143 151 155 153 150 146 143 139 135 131 127 123 119 114 111 109 107 105 102 101 98 94 91 89 86 83 81 80 79 79 78 78 79 77 74 67 63 61 60 58 58 56 54
141 148 154 152 150 147 144 140 137 134 131 127 123 118 116 113 110 108 106 102 99 96 93 91 89 85 83 82 81 80 79 73 63 67 76 69 62 60 59 58 57 55 54
141 148 153 152 150 148 146 142 139 137 134 130 127 123 120 117 114 110 107 104 101 98 95 93 92 89 86 84 82 81 76 62 54 63 71 64 58 59 58 56 55 53 52
141 148 151 151 150 149 147 144 141 138 136 133 129 127 123 120 116 112 110 107 104 101 99 97 96 92 89 86 84 82 71 53 54 67 71 68 55 57 57 55 53 52 50
142 145 150 153 151 149 147 146 143 141 138 135 131 128 126 122 118 114 112 110 108 106 104 101 98 95 91 88 84 77 58 46 63 68 65 59 51 54 54 52 51 50 49
143 143 151 154 153 151 149 148 146 144 142 138 135 132 128 125 121 118 116 114 112 111 108 105 101 98 93 89 84 72 46 38 77 76 72 58 49 52 51 49 49 48 46
140 143 152 155 153 152 151 151 149 146 143 142 139 136 131 129 126 124 122 119 116 113 111 108 105 101 95 91 84 64 37 34 64 79 74 57 50 52 51 50 48 47 48
140 144 152 155 153 153 153 152 150 149 147 146 142 138 135 134 133 129 126 123 121 119 115 111 109 104 99 94 87 60 26 20 57 74 73 53 48 49 51 52 51 51 51
143 149 155 156 154 153 153 153 151 150 150 148 142 137 136 137 136 133 130 128 126 124 120 115 112 108 105 103 96 47 357 356 75 75 70 53 50 49 51 53 54 54 53
150 154 159 159 157 155 155 155 151 150 150 145 139 139 140 140 138 137 133 133 132 128 126 123 122 121 121 125 135 262 307 29 88 82 67 56 52 50 54 56 56 55 52
160 161 163 162 160 158 157 154 154 153 150 149 146 149 156 151 146 139 136 138 138 136 133 134 138 144 149 159 185 232 288 81 96 92 75 63 55 56 59 59 57 54 52
164 163 164 163 161 158 153 157 159 156 159 162 158 164 165 147 137 133 141 142 143 146 148 151 163 183 172 151 164 134 43 63 91 95 82 70 62 62 65 61 60 57 57
167 168 165 162 162 159 156 161 159 156 165 165 164 169 162 146 143 148 153 160 162 167 161 171 188 180 151 146 140 109 79 69 97 104 91 78 69 67 66 63 60 59 57
171 171 169 164 163 161 159 163 163 161 166 165 166 174 160 147 151 155 163 162 168 165 162 180 177 153 143 130 119 115 114 96 103 111 105 91 80 73 70 66 60 56 58
174 174 171 168 165 163 163 165 166 165 166 165 166 173 162 158 160 161 159 159 163 157 165 175 168 142 129 120 117 106 96 92 104 121 123 108 95 86 78 68 61 56 55
175 174 174 172 167 167 167 168 167 165 165 162 165 172 167 165 165 167 155 155 157 161 165 169 153 131 121 120 116 92 78 78 91 118 131 132 120 107 94 78 66 56 51
174 174 175 175 172 170 170 169 163 164 163 162 165 172 171 170 169 166 153 156 161 161 159 149 138 130 130 133 123 105 96 86 86 104 119 133 137 131 120 104 85 64 52
176 175 175 175 175 172 168 167 162 162 163 165 167 171 174 173 170 164 156 159 160 155 153 155 146 142 139 130 122 113 108 121 120 118 124 124 127 132 138 137 128 107 64
176 175 175 174 175 170 165 166 164 166 169 168 172 173 175 176 173 167 159 164 161 154 160 158 153 145 143 144 128 114 121 140 143 154 154 143 148 154 160 162 164 160 163
176 174 175 175 176 173 174 176 177 179 178 176 176 178 178 177 176 170 165 167 162 162 167 164 153 151 150 136 113 109 287 220 192 180 167 163 167 170 174 182 180 179 187
179 176 176 178 179 179 181 182 179 173 175 176 175 182 184 182 179 177 169 171 166 164 170 170 154 154 162 158 150 145 188 291 273 207 183 183 179 175 189 199 196 195 196
181 179 180 180 181 183 178 173 168 166 169 179 186 189 189 186 183 179 176 171 173 171 176 175 166 161 167 188 183 161 164 204 213 234 217 199 198 194 201 205 202 206 208
183 180 180 180 181 183 178 178 177 181 185 189 186 185 185 188 186 182 181 179 178 177 178 179 173 167 161 178 205 211 184 156 151 206 260 230 214 211 209 200 199 206 211
182 179 180 180 182 182 182 184 184 187 189 179 176 181 187 191 189 186 185 184 183 183 182 181 175 173 171 171 174 177 204 218 188 166 223 245 245 235 216 201 196 205 210
181 178 179 180 183 183 184 186 188 188 184 179 181 186 188 190 191 190 188 189 187 185 184 183 180 178 180 179 177 171 167 175 201 190 204 217 227 236 220 208 200 204 206
Height
1480 1484 1487 1492 1495 1499 1502 1505 1509 1511 1514 1516 1518 1520 1522 1523 1525 1526 1528 1529 1531 1532 1533 1533 1534 1535 1535 1536 1536 1537 1538 1538 1539 1538 1538 1538 1538 1538 1538 1538 1537 1538 1538
1477 1482 1486 1491 1495 1498 1502 1505 1508 1511 1514 1516 1518 1520 1522 1523 1525 1527 1528 1530 1531 1532 1533 1534 1534 1535 1535 1536 1537 1538 1539 1539 1540 1539 1539 1539 1539 1539 1538 1538 1538 1538 1538
1476 1481 1486 1490 1494 1498 1501 1505 1508 1511 1514 1516 1518 1520 1522 1524 1525 1527 1529 1530 1532 1532 1533 1534 1535 1535 1536 1536 1537 1539 1540 1541 1541 1541 1540 1540 1540 1540 1539 1539 1539 1539 1538
1476 1480 1485 1489 1493 1497 1501 1504 1508 1511 1514 1516 1518 1521 1522 1524 1526 1528 1529 1531 1532 1533 1534 1534 1535 1536 1536 1537 1538 1540 1541 1542 1542 1542 1541 1541 1541 1541 1541 1540 1540 1540 1539
1476 1480 1484 1489 1493 1497 1501 1504 1507 1510 1513 1516 1518 1521 1523 1525 1526 1528 1529 1531 1532 1533 1534 1535 1536 1537 1537 1538 1539 1540 1542 1542 1543 1543 1542 1542 1542 1542 1542 1541 1541 1541 1540
1476 1480 1484 1488 1492 1496 1500 1504 1507 1510 1513 1516 1518 1521 1523 1525 1526 1528 1530 1531 1532 1534 1535 1536 1537 1537 1538 1539 1540 1541 1542 1543 1543 1543 1543 1543 1543 1543 1543 1543 1542 1542 1541
1476 1480 1484 1488 1492 1496 1500 1503 1507 1510 1513 1516 1518 1521 1523 1525 1526 1528 1530 1531 1533 1534 1535 1537 1537 1538 1539 1540 1541 1542 1543 1544 1544 1544 1544 1544 1544 1544 1544 1544 1543 1543 1542
1476 1479 1484 1488 1492 1496 1500 1503 1506 1509 1512 1515 1518 1521 1523 1525 1526 1528 1530 1532 1533 1535 1536 1537 1538 1539 1540 1541 1542 1543 1544 1544 1546 1545 1545 1545 1545 1545 1545 1544 1544 1543 1543
1476 1478 1483 1487 1492 1496 1499 1503 1506 1509 1512 1515 1518 1520 1522 1524 1526 1528 1530 1532 1533 1535 1536 1538 1539 1540 1541 1542 1543 1544 1545 1546 1546 1546 1546 1546 1546 1546 1546 1545 1545 1544 1544
1476 1478 1482 1486 1490 1494 1498 1502 1505 1508 1511 1514 1517 1519 1522 1524 1526 1528 1530 1532 1534 1535 1537 1538 1539 1540 1542 1543 1544 1545 1546 1547 1547 1547 1546 1547 1547 1547 1546 1546 1545 1545 1544
1475 1478 1481 1485 1489 1493 1497 1501 1504 1508 1511 1514 1516 1519 1522 1524 1526 1528 1530 1532 1534 1536 1537 1539 1540 1541 1542 1544 1545 1546 1547 1547 1547 1547 1547 1547 1547 1547 1547 1546 1546 1545 1545
1472 1476 1479 1483 1487 1491 1495 1499 1503 1506 1509 1512 1515 1518 1521 1523 1526 1528 1530 1532 1534 1536 1537 1539 1540 1542 1543 1544 1546 1547 1547 1548 1548 1547 1548 1547 1548 1548 1547 1547 1546 1546 1545
1469 1474 1478 1482 1486 1490 1493 1497 1501 1504 1508 1511 1514 1517 1520 1523 1526 1528 1530 1532 1534 1536 1537 1539 1541 1542 1543 1545 1546 1547 1548 1549 1548 1548 1548 1548 1548 1548 1548 1547 1547 1546 1545
1468 1472 1476 1480 1484 1488 1491 1495 1499 1502 1506 1510 1513 1516 1520 1522 1524 1527 1529 1531 1533 1535 1537 1539 1541 1543 1544 1545 1546 1547 1548 1549 1548 1548 1548 1548 1548 1548 1548 1547 1547 1547 1546
1465 1469 1474 1478 1481 1485 1489 1493 1497 1501 1504 1508 1512 1515 1518 1521 1523 1526 1528 1531 1533 1535 1537 1539 1541 1543 1544 1545 1546 1547 1548 1549 1548 1548 1548 1548 1548 1548 1548 1547 1547 1547 1546
1461 1466 1471 1475 1479 1483 1487 1491 1495 1499 1503 1506 1510 1513 1517 1519 1522 1525 1527 1530 1532 1534 1536 1538 1540 1542 1544 1545 1546 1547 1548 1548 1548 1548 1547 1548 1547 1547 1547 1547 1547 1546 1546
1457 1462 1467 1472 1476 1480 1485 1489 1493 1497 1501 1504 1508 1511 1515 1518 1520 1523 1526 1528 1531 1533 1536 1538 1540 1541 1543 1544 1545 1546 1547 1547 1548 1548 1547 1547 1547 1547 1547 1547 1546 1546 1545
1453 1458 1463 1468 1473 1477 1482 1487 1491 1495 1498 1502 1505 1509 1512 1516 1519 1521 1524 1527 1529 1532 1534 1536 1538 1540 1542 1543 1544 1545 1546 1546 1547 1547 1547 1547 1546 1546 1547 1546 1546 1545 1545
1448 1453 1458 1463 1468 1473 1478 1484 1488 1492 1496 1499 1502 1506 1510 1513 1516 1519 1522 1525 1527 1530 1532 1535 1537 1538 1540 1542 1543 1544 1545 1545 1546 1546 1546 1546 1546 1546 1546 1545 1545 1544 1544
1444 1448 1453 1458 1464 1470 1475 1480 1485 1489 1492 1496 1499 1502 1506 1510 1513 1516 1519 1522 1525 1527 1530 1532 1535 1537 1539 1540 1541 1542 1543 1544 1544 1545 1545 1545 1545 1545 1545 1544 1544 1543 1543
1438 1443 1448 1453 1458 1464 1469 1473 1478 1482 1487 1491 1495 1499 1503 1506 1510 1513 1516 1519 1522 1524 1527 1530 1532 1534 1536 1538 1540 1541 1542 1542 1543 1543 1543 1543 1544 1543 1543 1543 1542 1542 1541
1431 1436 1441 1446 1451 1457 1461 1466 1472 1477 1482 1487 1491 1495 1499 1502 1506 1509 1512 1515 1518 1521 1524 1527 1529 1531 1534 1536 1537 1539 1540 1541 1540 1541 1541 1542 1542 1542 1542 1541 1541 1540 1539
1423 1428 1434 1439 1444 1450 1456 1463 1469 1475 1479 1483 1486 1489 1493 1498 1501 1505 1508 1512 1515 1518 1520 1523 1526 1528 1530 1533 1535 1537 1538 1538 1538 1539 1539 1539 1540 1539 1539 1539 1538 1538 1537
1415 1421 1427 1433 1438 1444 1450 1455 1460 1464 1468 1472 1477 1483 1488 1492 1496 1500 1504 1507 1510 1514 1517 1519 1522 1525 1527 1529 1532 1534 1535 1536 1536 1536 1537 1537 1537 1537 1537 1536 1536 1535 1534
1408 1414 1420 1426 1432 1438 1443 1448 1453 1458 1462 1468 1473 1478 1482 1487 1491 1495 1498 1502 1506 1509 1512 1516 1518 1521 1523 1526 1528 1530 1532 1533 1534 1534 1534 1534 1534 1534 1534 1534 1533 1532 1532
1401 1407 1413 1419 1425 1431 1436 1441 1446 1451 1456 1462 1466 1471 1476 1480 1484 1489 1493 1497 1500 1504 1507 1511 1514 1517 1520 1522 1524 1526 1528 1529 1530 1531 1531 1531 1531 1531 1531 1531 1530 1529 1528